Denver, CO

3:38 AM MDT on July 24, 2017 (GMT -0600)
Denver International

Weather History for KDEN - October, 2010

Change the Weather History Date:

Tuesday, October 19, 2010

  Actual Average Record
Temperature  
Mean Temperature 53 °F 50 °F  
Max Temperature 68 °F 64 °F 86 °F (2003)
Min Temperature 37 °F 36 °F 18 °F (1916)
Degree Days  
Heating Degree Days 12 15  
Month to date heating degree days 128 228  
Since 1 July heating degree days 163 369  
Cooling Degree Days 0 0  
Month to date cooling degree days 8 1  
Year to date cooling degree days 870 765  
Growing Degree Days 2 (Base 50)    
Moisture  
Dew Point 30 °F    
Average Humidity 49    
Maximum Humidity 79    
Minimum Humidity 19    
Precipitation  
Precipitation 0.00 in 0.04 in 0.47 in (1898)
Month to date precipitation 0.48 0.68  
Year to date precipitation 12.09 13.00  
Snow  
Snow 0.00 in - - ()
Month to date snowfall 0  
Since 1 July snowfall 0  
Since 1 September snowfall 0  
Snow Depth 0.00 in    
Sea Level Pressure  
Sea Level Pressure 30.03 in    
Wind  
Wind Speed 8 mph (South)    
Max Wind Speed 15 mph    
Max Gust Speed 20 mph    
Visibility 10 miles    
Events      
T = Trace of Precipitation, MM = Missing Value Source: NWS Daily Summary

Daily Weather History Graph

Daily Weather History Graph

Search for Another Location

Airport or City:

Trip Planner

Search our weather history database for the weather conditions in past years. The results will help you decide how hot, cold, wet, or windy it might be!

Date:

Astronomy

Oct. 19, 2010 Rise Set
Actual Time 7:13 AM MDT 6:13 PM MDT
Civil Twilight 6:45 AM MDT 6:40 PM MDT
Nautical Twilight 6:14 AM MDT 7:12 PM MDT
Astronomical Twilight 5:43 AM MDT 7:43 PM MDT
Moon 4:23 PM MDT (10/19) 4:01 AM MDT (10/19)
Length of Visible Light 11h 54m
Length of Day
11h 00m
Waxing Gibbous, 90% of the Moon is Illuminated
Oct 19
Waxing Gibbous
Oct 22
Full
Oct 30
Last Quarter
Nov 5
New
Nov 13
First Quarter

Hourly Weather History & Observations

Time (MDT) Temp. Windchill Dew Point Humidity Pressure Visibility Wind Dir Wind Speed Gust Speed Precip Events Conditions
12:53 AM 44.1 °F 42.5 °F 34.0 °F 68% 30.04 in 10.0 mi ESE 3.5 mph - N/A   Mostly Cloudy
1:53 AM 39.9 °F 33.9 °F 33.1 °F 77% 30.04 in 10.0 mi South 9.2 mph - N/A   Scattered Clouds
2:53 AM 41.0 °F 36.4 °F 33.1 °F 73% 30.03 in 10.0 mi South 6.9 mph - N/A   Scattered Clouds
3:53 AM 39.0 °F 32.3 °F 33.1 °F 79% 30.03 in 7.0 mi South 10.4 mph - N/A   Clear
4:53 AM 39.0 °F 33.4 °F 32.0 °F 76% 30.04 in 9.0 mi SW 8.1 mph - N/A   Clear
5:53 AM 39.0 °F 34.0 °F 33.1 °F 79% 30.05 in 9.0 mi SW 6.9 mph - N/A   Clear
6:53 AM 39.0 °F 32.8 °F 33.1 °F 79% 30.06 in 10.0 mi SW 9.2 mph - N/A   Partly Cloudy
7:53 AM 43.0 °F 36.4 °F 34.0 °F 71% 30.06 in 10.0 mi SW 12.7 mph - N/A   Partly Cloudy
8:53 AM 48.9 °F - 35.1 °F 59% 30.06 in 10.0 mi SW 11.5 mph - N/A   Partly Cloudy
9:53 AM 57.9 °F - 33.1 °F 39% 30.04 in 10.0 mi WSW 11.5 mph - N/A   Partly Cloudy
10:53 AM 62.1 °F - 25.0 °F 24% 30.03 in 10.0 mi SSW 6.9 mph - N/A   Scattered Clouds
11:53 AM 64.9 °F - 21.9 °F 19% 30.01 in 10.0 mi Calm Calm - N/A   Scattered Clouds
1:53 PM 66.0 °F - 23.0 °F 20% 29.99 in 10.0 mi Variable 4.6 mph - N/A   Scattered Clouds
2:53 PM 66.9 °F - 26.1 °F 21% 29.98 in 10.0 mi ENE 11.5 mph 18.4 mph N/A   Scattered Clouds
3:53 PM 66.9 °F - 26.1 °F 21% 29.99 in 10.0 mi East 8.1 mph - N/A   Scattered Clouds
4:53 PM 64.9 °F - 26.1 °F 23% 29.99 in 10.0 mi NE 9.2 mph - N/A   Partly Cloudy
5:53 PM 60.1 °F - 27.0 °F 28% 30.02 in 10.0 mi East 5.8 mph - N/A   Partly Cloudy
6:53 PM 55.9 °F - 28.0 °F 34% 30.04 in 10.0 mi SE 5.8 mph - N/A   Clear
7:53 PM 48.9 °F - 28.9 °F 46% 30.07 in 10.0 mi SSE 10.4 mph - N/A   Clear
8:53 PM 48.0 °F - 28.0 °F 46% 30.06 in 10.0 mi South 11.5 mph - N/A   Clear
9:53 PM 46.9 °F - 28.9 °F 50% 30.05 in 10.0 mi SSW 6.9 mph - N/A   Clear
10:53 PM 43.0 °F 37.7 °F 28.9 °F 58% 30.06 in 10.0 mi South 9.2 mph - N/A   Clear
11:53 PM 41.0 °F 37.1 °F 28.0 °F 60% 30.04 in 10.0 mi SSE 5.8 mph - N/A   Clear